Weather History for KPBG - March, 2013

Change the Weather History Date:

Sunday, March 31, 2013

  Actual Average Record
Temperature  
Mean Temperature 39 °F 36 °F  
Max Temperature 55 °F 45 °F 72 °F (1977)
Min Temperature 23 °F 26 °F 7 °F (1954)
Degree Days  
Heating Degree Days 26 29  
Month to date heating degree days 1018 1070  
Since 1 July heating degree days 6169 6683  
Cooling Degree Days 0 0  
Month to date cooling degree days 0 0  
Year to date cooling degree days 0 0  
Moisture  
Dew Point 26 °F    
Average Humidity 55    
Maximum Humidity 81    
Minimum Humidity 29    
Precipitation  
Precipitation T in - 0.96 in (1989)
Month to date precipitation 0.88  
Year to date precipitation 2.36  
Sea Level Pressure  
Sea Level Pressure 29.90 in    
Wind  
Wind Speed 10 mph (SSE)    
Max Wind Speed 22 mph    
Max Gust Speed 30 mph    
Visibility 10 miles    
Events Rain    
T = Trace of Precipitation, MM = Missing Value Source: NWS Daily Summary

Daily Weather History Graph

Daily Weather History Graph

Search for Another Location

Airport or City:

Trip Planner

Search our weather history database for the weather conditions in past years. The results will help you decide how hot, cold, wet, or windy it might be!

Date:

Astronomy

Mar. 31, 2013 Rise Set
Actual Time 6:36 AM EDT 7:20 PM EDT
Civil Twilight 6:06 AM EDT 7:49 PM EDT
Nautical Twilight 5:31 AM EDT 8:25 PM EDT
Astronomical Twilight 4:55 AM EDT 9:01 PM EDT
Moon No Moon Rise 9:10 AM EDT (3/31)
Length of Visible Light 13h 43m
Length of Day
12h 44m
Waning Gibbous, 78% of the Moon is Illuminated
Mar 31
Waning Gibbous
Apr 3
Last Quarter
Apr 10
New
Apr 18
First Quarter
Apr 25
Full

Hourly Weather History & Observations

Time (EDT) Temp. Windchill Dew Point Humidity Pressure Visibility Wind Dir Wind Speed Gust Speed Precip Events Conditions
12:53 AM 27.0 °F - 18.0 °F 69% 30.08 in 10.0 mi Calm Calm - N/A   Clear
1:53 AM 25.0 °F 20.7 °F 19.9 °F 81% 30.09 in 10.0 mi SSE 3.5 mph - N/A   Clear
2:53 AM 26.1 °F - 19.9 °F 78% 30.08 in 10.0 mi Calm Calm - N/A   Clear
3:53 AM 26.1 °F - 19.0 °F 75% 30.06 in 10.0 mi Calm Calm - N/A   Clear
4:53 AM 26.1 °F - 19.9 °F 78% 30.05 in 10.0 mi Calm Calm - N/A   Clear
5:53 AM 24.1 °F - 19.9 °F 84% 30.03 in 10.0 mi Calm Calm - N/A   Clear
6:53 AM 25.0 °F - 19.9 °F 81% 30.02 in 10.0 mi Calm Calm - N/A   Clear
7:53 AM 30.0 °F - 24.1 °F 79% 30.02 in 10.0 mi Calm Calm - N/A   Clear
8:53 AM 36.0 °F 29.6 °F 26.1 °F 67% 30.00 in 10.0 mi SE 8.1 mph - N/A   Clear
9:53 AM 37.9 °F 32.1 °F 28.0 °F 68% 29.98 in 10.0 mi SE 8.1 mph - N/A   Clear
10:53 AM 46.0 °F 41.4 °F 27.0 °F 47% 29.96 in 10.0 mi SE 9.2 mph - N/A   Clear
11:53 AM 46.9 °F - 25.0 °F 42% 29.93 in 10.0 mi SSE 19.6 mph 27.6 mph N/A   Clear
12:53 PM 50.0 °F - 25.0 °F 38% 29.90 in 10.0 mi SSE 17.3 mph - N/A   Clear
1:53 PM 52.0 °F - 26.1 °F 37% 29.86 in 10.0 mi SSE 16.1 mph 26.5 mph N/A   Clear
2:53 PM 53.1 °F - 25.0 °F 34% 29.82 in 10.0 mi SSE 19.6 mph 27.6 mph N/A   Clear
3:53 PM 54.0 °F - 24.1 °F 31% 29.79 in 10.0 mi SSE 18.4 mph 26.5 mph N/A   Clear
4:53 PM 54.0 °F - 23.0 °F 30% 29.77 in 10.0 mi South 11.5 mph 21.9 mph N/A   Mostly Cloudy
5:53 PM 54.0 °F - 26.1 °F 34% 29.77 in 10.0 mi South 17.3 mph 28.8 mph N/A   Overcast
6:53 PM 51.1 °F - 30.9 °F 46% 29.77 in 10.0 mi SSW 8.1 mph - 0.00 in   Overcast
7:53 PM 48.9 °F - 30.9 °F 50% 29.73 in 10.0 mi South 4.6 mph - N/A   Overcast
8:53 PM 48.0 °F - 30.9 °F 52% 29.72 in 10.0 mi SSE 15.0 mph - N/A   Overcast
9:53 PM 48.9 °F - 34.0 °F 56% 29.72 in 10.0 mi South 13.8 mph - N/A   Overcast
10:53 PM 45.0 °F 37.6 °F 37.0 °F 74% 29.71 in 10.0 mi SSE 17.3 mph 24.2 mph 0.00 in Rain Light Rain
11:53 PM 44.1 °F 37.4 °F 37.0 °F 76% 29.69 in 10.0 mi South 13.8 mph 20.7 mph 0.00 in   Overcast